This is the latest recevied weather packets stored in our database for station/object JS1SZZ-13. If no packets are shown the sender has not sent any weather packets the latest 10 day(s).
| Time | Temp. | Humidity | Pressure | Rain* | Wind** | Luminosity | Snow |
|---|---|---|---|---|---|---|---|
| 1777978200 | 10.56° C | 61% | 1018.9 hPa | 0 mm | - | - | - |
| 1777977299 | 10.56° C | 59% | 1018.8 hPa | 0 mm | - | - | - |
| 1777976400 | 11.67° C | 57% | 1018.4 hPa | 0 mm | - | - | - |
| 1777975500 | 12.22° C | 52% | 1018.3 hPa | 0 mm | - | - | - |
| 1777974600 | 13.89° C | 50% | 1017.9 hPa | 0 mm | - | - | - |
| 1777973701 | 15° C | 45% | 1017.9 hPa | 0 mm | - | - | - |
| 1777972800 | 16.11° C | 37% | 1017.4 hPa | 0 mm | - | - | - |
| 1777971900 | 17.22° C | 32% | 1017.5 hPa | 0 mm | - | - | - |
| 1777971000 | 18.33° C | 26% | 1017.2 hPa | 0 mm | - | - | - |
| 1777970100 | 18.89° C | 29% | 1017 hPa | 0 mm | - | - | - |
| 1777969199 | 18.89° C | 27% | 1016.8 hPa | 0 mm | - | - | - |
| 1777968300 | 20° C | 22% | 1016.6 hPa | 0 mm | - | - | - |
| 1777967401 | 20.56° C | 19% | 1016.6 hPa | 0 mm | - | - | - |
| 1777966500 | 21.67° C | 20% | 1016.5 hPa | 0 mm | - | - | - |
| 1777965599 | 20° C | 19% | 1016.1 hPa | 0 mm | - | - | - |
| 1777964699 | 20° C | 20% | 1016 hPa | 0 mm | - | - | - |
| 1777963800 | 20° C | 21% | 1015.6 hPa | 0 mm | - | - | - |
| 1777962900 | 20° C | 19% | 1015.7 hPa | 0 mm | - | - | - |
| 1777961999 | 20° C | 20% | 1015.8 hPa | 0 mm | - | - | - |
| 1777961100 | 20° C | 20% | 1015.6 hPa | 0 mm | - | - | - |
| 1777960200 | 20° C | 22% | 1015.4 hPa | 0 mm | - | - | - |
| 1777959299 | 20° C | 20% | 1015.7 hPa | 0 mm | - | - | - |
| 1777958399 | 20° C | 20% | 1015.7 hPa | 0 mm | - | - | - |
| 1777957499 | 18.89° C | 22% | 1016 hPa | 0 mm | - | - | - |
| 1777956601 | 20° C | 21% | 1016 hPa | 0 mm | - | - | - |
* Rain latest hour (hover to see other rain measurements)
** Current wind speed in m/s (hover to see current wind gust speed)